sat.trackr.live / text

‹ back to catalog

STARLINK-30885

NORAD 58361 · 2023-177L

PAYLOAD ACTIVE UNKNOWN

§ Identity

Operator
Country
US
Launch date
2023-11-18
Launch site
AFETR
Launch vehicle
Mass (kg)
RCS (m²)

Purposes: comms

External: N2YO · Heavens-Above · Gunter

§ Orbital elements

Epoch: 2026-05-24T18:24:01.958976Z

Period
94.27 min
Inclination
43.0033°
Eccentricity
0.0001623
Mean motion
15.27571873 rev/d
Perigee alt
482.0 km
Apogee alt
484.2 km
Semi-major
6,861.2 km
B*
-5.6435e-6
RAAN
280.8623°
Arg perigee
264.5640°
Mean anomaly
95.5027°
Rev number
13,987

§ Raw data

STARLINK-308851 58361U 23177L   26144.76668934 -.00000417  00000+0 -56435-5 0  99902 58361  43.0033 280.8623 0001623 264.5640  95.5027 15.27571873139878

JSON: /api/v1/satellites/58361 · /tle

For live sub-satellite position, see the globe view (requires WebGL).

§ Visibility from observer

Set your observer location to see the next 7 days of passes ≥ 10°. The values pass through the URL so the page stays shareable.

No JS? Fill the form by hand. The geolocation button needs JavaScript.